1507543201.18,19285,12.31,73122.5,2.17,1.17,1.17,0,*7E
1507543202.45,19286,12.31,73124.0,2.17,1.09,1.09,0,*7D
1507543203.69,19287,12.25,73120.0,2.19,1.21,1.21,0,*72
1507543204.92,19288,12.31,73128.3,2.19,1.13,1.13,0,*7D
1507543206.16,19289,12.31,73130.0,2.19,1.21,1.21,0,*7C
1507543207.4,19290,12.31,73134.5,2.19,1.21,1.25,0,*70
1507543208.63,19291,12.31,73134.5,2.19,1.25,1.25,0,*75
1507543209.86,19292,12.31,73134.8,2.19,1.25,1.33,0,*71
1507543211.12,19293,12.31,73130.8,2.21,1.25,1.37,0,*7F
1507543212.38,19294,12.31,73124.8,2.21,1.25,1.25,0,*7B
1507543213.64,19295,12.31,73124.8,2.21,1.25,1.29,0,*76
1507543214.9,19296,12.31,73122.8,2.21,1.29,1.29,0,*79
1507543216.17,19297,12.31,73130.0,2.21,1.29,1.29,0,*78
1507543217.43,19298,12.31,73128.8,2.21,1.17,1.29,0,*7A
1507543218.69,19299,12.31,73134.3,2.21,1.25,1.29,0,*7A
1507543219.95,19300,12.31,73132.5,2.21,1.25,1.25,0,*77
1507543221.18,19301,12.31,73130.8,2.23,1.17,1.25,0,*75
1507543222.41,19302,12.31,73128.8,2.23,1.29,1.25,0,*7B
1507543223.65,19303,12.31,73130.3,2.23,1.17,1.29,0,*7B
1507543224.91,19304,12.31,73128.8,2.25,1.33,1.29,0,*7C
1507543226.14,19305,12.31,73128.5,2.23,1.17,1.17,0,*70
1507543227.37,19306,12.31,73124.5,2.23,1.17,1.17,0,*73
1507543228.63,19307,12.31,73128.0,2.25,1.17,1.17,0,*74
1507543229.9,19308,12.31,73128.0,2.25,1.21,1.17,0,*7E
1507543231.13,19309,12.31,73132.5,2.23,1.25,1.25,0,*7C
1507543232.39,19310,12.31,73132.8,2.25,1.21,1.29,0,*7A
1507543233.66,19311,12.31,73132.0,2.25,1.21,1.21,0,*73
1507543234.92,19312,12.31,73136.0,2.25,1.21,1.29,0,*78
1507543236.18,19313,12.31,73128.5,2.25,1.29,1.29,0,*71
1507543237.45,19314,12.31,73132.0,2.25,1.21,1.21,0,*76
1507543238.71,19315,12.31,73130.0,2.25,1.21,1.29,0,*7F
1507543239.98,19316,12.31,73134.8,2.25,1.21,1.21,0,*74
1507543241.22,19317,12.31,73128.5,2.27,1.21,1.29,0,*7F
1507543242.48,19318,12.31,73128.5,2.29,1.25,1.33,0,*71
1507543243.71,19319,12.25,73128.0,2.27,1.29,1.29,0,*79
1507543244.95,19320,12.31,73134.3,2.27,1.17,1.21,0,*76
1507543246.21,19321,12.31,73134.3,2.29,1.25,1.33,0,*7B
1507543247.45,19322,12.31,73132.8,2.27,1.17,1.21,0,*74
1507543248.71,19323,12.31,73132.8,2.29,1.21,1.25,0,*7A
1507543249.96,19324,12.31,73128.5,2.29,1.25,1.33,0,*7E
1507543251.2,19325,12.25,73124.3,2.27,1.17,1.21,0,*73
1507543252.46,19326,12.31,73126.5,2.29,1.13,1.25,0,*7E
1507543253.72,19327,12.31,73124.5,2.29,1.21,1.25,0,*7E
1507543254.97,19328,12.31,73126.8,2.29,1.25,1.25,0,*75
1507543256.22,19329,12.31,73126.5,2.29,1.25,1.25,0,*74
1507543257.48,19330,12.25,73124.5,2.29,1.25,1.25,0,*7C
1507543258.73,19331,12.31,73128.0,2.29,1.21,1.25,0,*79
1507543259.99,19332,12.25,73126.5,2.29,1.25,1.25,0,*7E
1507543261.24,19333,12.25,73126.5,2.29,1.25,1.25,0,*7F
1507543262.47,19334,12.31,73126.5,2.35,1.29,1.29,0,*75
1507543263.73,19335,12.31,73120.5,2.33,1.21,1.25,0,*76
1507543264.99,19336,12.25,73122.8,2.33,1.25,1.25,0,*71
1507543266.25,19337,12.31,73120.5,2.33,1.13,1.25,0,*75
1507543267.52,19338,12.25,73120.5,2.33,1.21,1.21,0,*7F
1507543268.75,19339,12.25,73122.5,2.35,1.25,1.25,0,*78
1507543269.97,19340,12.31,73126.0,2.35,1.25,1.29,0,*7A
1507543271.21,19341,12.25,73122.8,2.35,1.29,1.37,0,*78
1507543272.42,19342,12.31,73128.5,2.35,1.05,1.13,0,*73
1507543273.6,19343,12.25,73124.5,2.35,1.01,1.05,0,*71
1507543274.83,19344,12.25,73120.8,2.35,1.29,1.25,0,*7E
1507543276.06,19345,12.25,73122.8,2.35,1.25,1.29,0,*7F
1507543277.3,19346,12.25,73124.3,2.35,1.29,1.37,0,*7F
1507543278.53,19347,12.31,73124.8,2.35,1.29,1.29,0,*71
1507543279.76,19348,12.25,73120.3,2.35,1.25,1.29,0,*72
1507543280.99,19349,12.25,73122.5,2.37,1.25,1.29,0,*71
1507543282.23,19350,12.25,73124.5,2.37,1.17,1.29,0,*78
1507543283.49,19351,12.25,73124.0,2.39,1.29,1.33,0,*71
1507543284.73,19352,12.25,73124.3,2.37,1.25,1.29,0,*7B
1507543285.97,19353,12.25,73122.5,2.37,1.17,1.25,0,*77
1507543287.2,19354,12.25,73120.5,2.37,1.29,1.29,0,*71
1507543288.44,19355,12.31,73128.8,2.37,1.29,1.25,0,*7C
1507543289.68,19356,12.25,73120.8,2.37,1.25,1.29,0,*7F
1507543290.91,19357,12.25,73120.5,2.37,1.25,1.25,0,*72
1507543292.18,19358,12.25,73122.3,2.39,1.21,1.33,0,*70
1507543293.44,19359,12.25,73120.3,2.39,1.29,1.33,0,*79
1507543294.7,19360,12.25,73122.3,2.39,1.21,1.29,0,*70
1507543295.96,19361,12.25,73124.3,2.39,1.21,1.29,0,*71
1507543297.22,19362,12.25,73122.8,2.39,1.21,1.29,0,*72
1507543298.49,19363,12.25,73120.8,2.39,1.29,1.33,0,*70
1507543299.75,19364,12.25,73124.0,2.39,1.29,1.33,0,*77
1507543301.01,19365,12.25,73130.0,2.39,1.29,1.33,0,*76
1507543302.27,19366,12.25,73126.5,2.39,1.29,1.29,0,*7E
1507543303.52,19367,12.25,73128.0,2.41,1.33,1.33,0,*70
1507543304.78,19368,12.25,73126.0,2.43,1.33,1.37,0,*79
1507543306.02,19369,12.25,73126.8,2.41,1.33,1.43,0,*79
1507543307.29,19370,12.25,73120.8,2.43,1.25,1.37,0,*77
1507543308.55,19371,12.25,73126.0,2.43,1.25,1.33,0,*72
1507543309.82,19372,12.25,73122.5,2.43,1.33,1.37,0,*72
1507543311.08,19373,12.25,73122.8,2.43,1.25,1.37,0,*74
1507543312.32,19374,12.25,73128.5,2.41,1.25,1.33,0,*75
1507543313.58,19375,12.25,73124.8,2.43,1.25,1.33,0,*76
1507543314.85,19376,12.25,73122.3,2.43,1.33,1.37,0,*76
1507543316.09,19377,12.25,73118.0,2.45,1.29,1.37,0,*7A
1507543317.3,19378,12.25,73116.8,2.45,1.29,1.41,0,*74
1507543318.54,19379,12.25,73118.3,2.45,1.37,1.37,0,*7B
1507543319.78,19380,12.25,73122.5,2.45,1.29,1.37,0,*72
1507543321.02,19381,12.25,73118.3,2.45,1.29,1.37,0,*73
1507543322.28,19382,12.25,73116.5,2.47,1.29,1.37,0,*72
1507543323.52,19383,12.25,73118.0,2.45,1.29,1.37,0,*71
1507543324.76,19384,12.25,73116.3,2.45,1.29,1.29,0,*79
1507543326.01,19385,12.25,73114.8,2.47,1.17,1.17,0,*7A
1507543327.25,19386,12.25,73112.3,2.45,1.13,1.17,0,*7F
1507543328.49,19387,12.25,73114.5,2.45,1.13,1.17,0,*7E
1507543329.72,19388,12.25,73108.5,2.45,1.13,1.25,0,*70
1507543330.96,19389,12.25,73110.0,2.45,1.17,1.25,0,*75
1507543332.19,19390,12.25,73108.8,2.45,1.29,1.29,0,*7C
1507543333.45,19391,12.25,73114.0,2.47,1.25,1.29,0,*73
1507543334.71,19392,12.25,73114.3,2.47,1.17,1.29,0,*71
1507543335.96,19393,12.25,73116.8,2.47,1.29,1.29,0,*7D
1507543337.22,19394,12.25,73118.5,2.47,1.25,1.29,0,*76
1507543338.42,19395,12.25,73116.0,2.47,1.01,1.05,0,*7F
1507543339.67,19396,12.25,73116.8,2.47,0.95,0.91,0,*7C
1507543340.91,19397,12.25,73120.5,2.47,0.95,0.95,0,*79
1507543342.14,19398,12.25,73116.0,2.47,0.95,0.95,0,*76
1507543343.36,19399,12.25,73116.8,2.47,0.95,1.01,0,*4B
1507543344.54,19400,12.25,73116.5,2.45,1.01,1.01,0,*72
1507543345.74,19401,12.25,73118.8,2.47,1.01,1.01,0,*71
1507543346.95,19402,12.25,73114.5,2.47,1.01,1.01,0,*72
1507543348.21,19403,12.25,73116.5,2.47,1.13,1.17,0,*77
1507543349.46,19404,12.25,73110.8,2.47,1.17,1.25,0,*75
1507543350.69,19405,12.25,73114.3,2.47,1.05,1.13,0,*72
1507543351.92,19406,12.25,73116.5,2.47,1.05,1.13,0,*71
1507543353.18,19407,12.25,73114.8,2.47,1.17,1.17,0,*77
1507543354.41,19408,12.25,73114.3,2.45,1.17,1.17,0,*7A
1507543355.65,19409,12.25,73114.3,2.45,1.17,1.25,0,*7A
1507543356.9,19410,12.25,73116.0,2.47,1.25,1.25,0,*71
1507543358.13,19411,12.25,73118.5,2.45,1.25,1.25,0,*72
1507543359.33,19412,12.25,73120.0,2.47,1.05,1.05,0,*73
1507543360.55,19413,12.25,73118.0,2.47,0.95,1.05,0,*4A
1507543361.79,19414,12.25,73110.5,2.47,0.95,0.95,0,*75
1507543362.99,19415,12.25,73106.8,2.47,1.01,1.05,0,*70
1507543364.25,19416,12.25,73118.0,2.47,1.25,1.25,0,*77
1507543365.5,19417,12.25,73116.3,2.47,1.25,1.29,0,*7A
1507543366.68,19418,12.25,73112.5,2.45,1.05,1.05,0,*7B
1507543367.88,19419,12.25,73114.8,2.47,1.01,1.01,0,*78
1507543369.12,19420,12.25,73112.3,2.47,0.95,0.95,0,*72
1507543370.36,19421,12.25,73110.0,2.47,0.75,0.87,0,*7E
1507543371.6,19422,12.25,73112.0,2.47,0.51,0.41,0,*71
1507543372.81,19423,12.25,73118.0,2.45,0.41,0.29,0,*7D
1507543374.03,19424,12.25,73110.3,2.45,0.29,0.29,0,*74
1507543375.25,19425,12.25,73110.8,2.45,0.29,0.21,0,*7D
1507543376.49,19426,12.25,73114.0,2.43,0.17,0.13,0,*74
1507543377.68,19427,12.25,73112.8,2.41,0.13,0.09,0,*48
1507543378.9,19428,12.25,73110.0,2.41,0.13,0.17,0,*78
1507543380.14,19429,12.25,73118.8,2.39,0.25,0.25,0,*72
1507543381.38,19430,12.25,73112.3,2.39,0.33,0.21,0,*79
1507543382.61,19431,12.25,73118.0,2.39,0.33,0.33,0,*7B
1507543383.82,19432,12.25,73112.3,2.37,0.33,0.41,0,*73
1507543385.03,19433,12.25,73112.5,2.35,0.33,0.41,0,*70
1507543386.27,19434,12.25,73118.8,2.33,0.25,0.29,0,*78
1507543387.49,19435,12.25,73114.5,2.35,0.63,0.63,0,*73
1507543388.72,19436,12.25,73114.5,2.35,0.91,0.91,0,*70
1507543389.93,19437,12.25,73114.3,2.35,0.75,0.79,0,*7D
1507543391.15,19438,12.25,73114.5,2.35,0.79,0.91,0,*78
1507543392.42,19439,12.25,73116.0,2.33,1.21,1.21,0,*79
1507543393.66,19440,12.25,73114.3,2.35,1.29,1.37,0,*7E
1507543394.92,19441,12.25,73118.8,2.33,1.33,1.25,0,*71
1507543396.16,19442,12.25,73118.5,2.37,1.29,1.37,0,*7E
1507543397.41,19443,12.25,73122.8,2.37,1.37,1.37,0,*70
1507543398.62,19444,12.25,73122.5,2.37,1.37,1.41,0,*76
1507543399.82,19445,12.25,73118.0,2.37,1.29,1.41,0,*78
1507543401.05,19446,12.25,73116.8,2.39,1.33,1.41,0,*7E
1507543402.28,19447,12.25,73116.5,2.39,1.33,1.41,0,*7F
1507543403.48,19448,12.25,73118.5,2.39,1.41,1.41,0,*75
1507543404.71,19449,12.25,73120.5,2.39,1.41,1.33,0,*71
1507543405.93,19450,12.25,73124.5,2.41,1.43,1.43,0,*73
1507543407.19,19451,12.25,73126.3,2.43,1.43,1.43,0,*70
1507543408.41,19452,12.25,73128.3,2.41,1.43,1.43,0,*71
1507543409.64,19453,12.25,73126.5,2.41,1.43,1.47,0,*74
1507543410.9,19454,12.25,73128.8,2.43,1.37,1.55,0,*71
1507543412.14,19455,12.25,73126.8,2.41,1.25,1.33,0,*71
1507543413.41,19456,12.25,73124.3,2.43,1.21,1.33,0,*74
1507543414.68,19457,12.25,73126.8,2.43,1.37,1.37,0,*76
1507543415.94,19458,12.25,73124.8,2.43,1.25,1.33,0,*7E
1507543417.21,19459,12.25,73126.3,2.43,1.33,1.25,0,*7F
1507543418.42,19460,12.25,73124.0,2.43,1.01,1.01,0,*72
1507543419.67,19461,12.25,73126.0,2.43,0.83,0.83,0,*73
1507543420.87,19462,12.25,73126.3,2.43,0.97,0.97,0,*70
1507543422.11,19463,12.25,73130.5,2.43,0.97,1.09,0,*47
1507543423.37,19464,12.25,73132.0,2.43,1.09,1.13,0,*7D
1507543424.58,19465,12.25,73132.8,2.43,1.01,1.01,0,*77
1507543425.84,19466,12.25,73132.8,2.43,0.87,0.91,0,*73
1507543427.09,19467,12.25,73128.5,2.43,0.83,0.83,0,*75
1507543428.32,19468,12.25,73128.5,2.45,0.87,0.91,0,*7B
1507543429.55,19469,12.25,73128.5,2.45,1.25,1.37,0,*7E
1507543430.8,19470,12.19,73128.3,2.43,1.43,1.43,0,*73
1507543432.06,19471,12.25,73130.3,2.43,1.43,1.55,0,*75
1507543433.26,19472,12.25,73134.8,2.45,1.41,1.51,0,*76
1507543434.48,19473,12.25,73130.0,2.45,1.47,1.59,0,*79
1507543435.73,19474,12.25,73126.0,2.47,1.47,1.51,0,*74
1507543436.95,19475,12.25,73126.0,2.45,1.47,1.47,0,*70
1507543438.15,19476,12.25,73126.0,2.47,1.41,1.41,0,*71
1507543439.34,19477,12.25,73124.8,2.47,1.41,1.41,0,*70
1507543440.6,19478,12.25,73128.0,2.47,1.37,1.47,0,*78
1507543441.85,19479,12.25,73128.5,2.47,1.37,1.47,0,*79
1507543443.11,19480,12.25,73128.3,2.47,1.37,1.43,0,*7B
1507543444.28,19481,12.25,73126.3,2.49,1.41,1.41,0,*77
1507543445.49,19482,12.25,73118.3,2.49,1.33,1.41,0,*71
1507543446.74,19483,12.25,73116.3,2.51,1.33,1.43,0,*7B
1507543448.01,19484,12.25,73120.3,2.51,1.33,1.33,0,*7B
1507543449.25,19485,12.25,73122.8,2.49,1.33,1.33,0,*73
1507543450.49,19486,12.25,73120.8,2.49,1.29,1.33,0,*7B
1507543451.75,19487,12.19,73116.3,2.51,1.29,1.33,0,*73
1507543453.01,19488,12.25,73120.5,2.51,1.33,1.33,0,*77
1507543454.25,19489,12.25,73122.0,2.49,1.29,1.33,0,*74
1507543455.51,19490,12.25,73120.8,2.51,1.29,1.33,0,*75
1507543456.72,19491,12.25,73116.3,2.49,1.41,1.33,0,*73
1507543457.98,19492,12.25,73116.8,2.51,1.29,1.33,0,*77
1507543459.25,19493,12.19,73118.0,2.51,1.21,1.33,0,*7E
1507543460.48,19494,12.19,73120.5,2.51,1.29,1.41,0,*74
1507543461.71,19495,12.19,73124.3,2.53,1.25,1.37,0,*7A
1507543462.95,19496,12.25,73132.5,2.53,1.33,1.33,0,*7A
1507543464.18,19497,12.19,73130.5,2.53,1.25,1.33,0,*7C
1507543465.41,19498,12.25,73130.5,2.53,1.25,1.33,0,*73
1507543466.65,19499,12.19,73124.5,2.53,1.21,1.25,0,*71
1507543467.89,19500,12.25,73124.0,2.53,1.33,1.25,0,*73
1507543469.12,19501,12.25,73126.3,2.53,1.25,1.33,0,*72
1507543470.36,19502,12.19,73120.8,2.57,1.29,1.37,0,*7D
1507543471.59,19503,12.25,73126.8,2.57,1.29,1.37,0,*7C
1507543472.82,19504,12.25,73124.5,2.53,1.25,1.25,0,*70
1507543474.05,19505,12.25,73122.3,2.57,1.25,1.37,0,*76
1507543475.29,19506,12.25,73122.3,2.53,1.33,1.37,0,*76
1507543476.53,19507,12.19,73126.0,2.57,1.37,1.37,0,*77
1507543477.77,19508,12.19,73126.3,2.57,1.29,1.29,0,*78
1507543479.01,19509,12.19,73124.5,2.53,1.33,1.33,0,*7D
1507543480.24,19510,12.19,73124.0,2.57,1.29,1.37,0,*7E
1507543481.48,19511,12.19,73124.0,2.53,1.37,1.37,0,*74
1507543482.72,19512,12.25,73126.5,2.57,1.37,1.29,0,*7C
1507543483.95,19513,12.19,73124.8,2.57,1.25,1.29,0,*7E
1507543485.18,19514,12.19,73122.3,2.57,1.17,1.17,0,*75
1507543486.35,19515,12.25,73122.8,2.57,1.01,1.05,0,*70
1507543487.58,19516,12.19,73116.8,2.57,0.91,0.91,0,*77
1507543488.81,19517,12.19,73120.5,2.57,0.87,0.87,0,*76
1507543490.02,19518,12.19,73120.8,2.53,0.63,0.71,0,*7E
1507543491.18,19519,12.25,73126.8,2.57,0.43,0.43,0,*78
1507543492.4,19520,12.19,73126.0,2.57,0.51,0.55,0,*76
1507543493.62,19521,12.19,73126.3,2.53,0.59,0.59,0,*77
1507543494.83,19522,12.25,73124.8,2.53,0.63,0.63,0,*74
1507543496.05,19523,12.19,73124.3,2.53,0.71,0.75,0,*71
1507543497.3,19524,12.19,73126.5,2.51,0.83,0.83,0,*70
1507543498.52,19525,12.25,73126.3,2.49,0.83,0.83,0,*78
1507543499.76,19526,12.19,73124.3,2.51,0.83,0.83,0,*72
1507543500.94,19527,12.19,73124.0,2.49,0.97,1.05,0,*40
1507543502.14,19528,12.19,73124.0,2.51,1.05,0.97,0,*46
1507543503.35,19529,12.19,73124.0,2.49,1.09,1.05,0,*78
1507543504.58,19530,12.19,73124.3,2.51,1.09,1.05,0,*79
1507543505.77,19531,12.19,73120.3,2.51,0.97,0.97,0,*74
1507543507.04,19532,12.19,73122.8,2.51,1.09,1.09,0,*77
1507543508.29,19533,12.19,73118.5,2.51,1.17,1.17,0,*76
1507543509.56,19534,12.25,73126.8,2.51,1.29,1.21,0,*79
1507543510.82,19535,12.19,73126.3,2.51,1.17,1.21,0,*75
1507543512.08,19536,12.19,73126.0,2.51,1.17,1.29,0,*7E
1507543513.32,19537,12.19,73122.0,2.53,1.33,1.33,0,*70
1507543514.55,19538,12.19,73114.8,2.53,1.33,1.33,0,*7F
1507543515.79,19539,12.19,73112.3,2.53,1.33,1.33,0,*7E
1507543517.03,19540,12.19,73126.3,2.53,1.37,1.37,0,*70
1507543518.27,19541,12.19,73126.0,2.53,1.33,1.25,0,*76
1507543519.5,19542,12.19,73120.3,2.57,1.29,1.29,0,*76
1507543520.74,19543,12.19,73118.3,2.53,1.17,1.13,0,*77
1507543521.94,19544,12.19,73118.8,2.57,1.05,1.17,0,*73
1507543523.17,19545,12.19,73118.8,2.57,1.17,1.25,0,*70
1507543524.41,19546,12.19,73118.3,2.53,1.21,1.21,0,*76
1507543525.64,19547,12.19,73118.8,2.57,1.17,1.17,0,*73
1507543526.88,19548,12.19,73122.8,2.57,1.17,1.17,0,*7C
1507543528.1,19549,12.19,73122.0,2.57,1.25,1.25,0,*7D
1507543529.34,19550,12.19,73118.0,2.53,1.25,1.33,0,*76
1507543530.57,19551,12.19,73118.8,2.53,1.33,1.37,0,*74
1507543531.81,19552,12.19,73116.3,2.53,1.25,1.33,0,*74
1507543533.04,19553,12.19,73118.8,2.57,1.25,1.29,0,*7A
1507543534.27,19554,12.19,73124.3,2.57,1.29,1.29,0,*71
1507543535.5,19555,12.19,73120.8,2.57,1.13,1.17,0,*74
1507543536.71,19556,12.19,73116.5,2.57,1.05,1.13,0,*74
1507543537.88,19557,12.19,73116.3,2.57,1.01,1.01,0,*72
1507543539.11,19558,12.19,73118.0,2.57,0.87,0.91,0,*7A
1507543540.32,19559,12.19,73122.0,2.53,0.75,0.71,0,*7C
1507543541.54,19560,12.19,73126.3,2.53,0.83,0.95,0,*75
1507543542.76,19561,12.19,73124.8,2.53,0.71,0.83,0,*7E
1507543543.98,19562,12.19,73128.5,2.53,0.71,0.63,0,*73
1507543545.2,19563,12.19,73122.8,2.53,0.51,0.51,0,*71
1507543546.42,19564,12.19,73118.8,2.53,0.71,0.75,0,*72
1507543547.65,19565,12.19,73126.0,2.51,0.67,0.71,0,*72
1507543548.89,19566,12.25,73130.3,2.51,0.71,0.79,0,*7E
1507543550.11,19567,12.19,73124.3,2.51,0.55,0.43,0,*70
1507543551.29,19568,12.19,73124.5,2.49,-0.03,-0.07,0,*75
1507543552.52,19569,12.19,73124.3,2.47,0.67,0.67,0,*7E
1507543553.77,19570,12.19,73124.0,2.47,0.87,0.91,0,*71
1507543555.03,19571,12.19,73124.5,2.47,0.91,0.91,0,*77
1507543556.28,19572,12.19,73122.0,2.47,0.87,0.91,0,*73
1507543557.52,19573,12.19,73122.5,2.47,0.91,0.95,0,*71
1507543558.76,19574,12.19,73124.0,2.49,1.17,1.17,0,*7C
1507543560.0,19575,12.19,73122.8,2.49,1.17,1.21,0,*78
1507543561.23,19576,12.19,73120.8,2.49,1.21,1.29,0,*76
1507543562.48,19577,12.19,73122.8,2.49,1.29,1.21,0,*77
1507543563.71,19578,12.19,73120.5,2.49,1.29,1.29,0,*70
1507543564.95,19579,12.19,73120.5,2.49,1.29,1.29,0,*71
1507543566.19,19580,12.19,73118.0,2.49,1.21,1.29,0,*7F
1507543567.45,19581,12.19,73116.5,2.51,1.21,1.21,0,*7F
1507543568.69,19582,12.19,73118.5,2.49,1.29,1.29,0,*75
1507543569.95,19583,12.19,73116.3,2.51,1.29,1.29,0,*7D
1507543571.21,19584,12.19,73124.3,2.51,1.21,1.33,0,*79
1507543572.47,19585,12.19,73120.5,2.51,1.21,1.29,0,*73
1507543573.73,19586,12.19,73120.0,2.51,1.29,1.29,0,*78
1507543574.97,19587,12.19,73120.5,2.49,1.21,1.33,0,*73
1507543576.23,19588,12.19,73122.8,2.51,1.21,1.29,0,*7E
1507543577.5,19589,12.19,73124.8,2.51,1.29,1.29,0,*77
1507543578.76,19590,12.19,73124.0,2.51,1.21,1.33,0,*7C
1507543579.99,19591,12.19,73126.0,2.53,1.33,1.25,0,*7B
1507543581.2,19592,12.19,73120.0,2.57,1.29,1.41,0,*75
1507543582.43,19593,12.19,73122.5,2.53,1.25,1.33,0,*79
1507543583.66,19594,12.19,73120.3,2.53,1.25,1.33,0,*7E
1507543584.9,19595,12.19,73124.0,2.57,1.37,1.37,0,*7C
1507543586.14,19596,12.19,73120.8,2.57,1.37,1.37,0,*7F
1507543587.38,19597,12.19,73122.8,2.53,1.33,1.33,0,*7A
1507543588.61,19598,12.19,73120.0,2.57,1.29,1.37,0,*7E
1507543589.85,19599,12.19,73126.0,2.57,1.37,1.37,0,*70
1507543591.09,19600,12.19,73124.5,2.57,1.37,1.37,0,*73
1507543592.33,19601,12.19,73126.3,2.57,1.29,1.37,0,*7D
1507543593.57,19602,12.19,73124.0,2.57,1.37,1.37,0,*71
1507543594.8,19603,12.19,73124.8,2.57,1.29,1.37,0,*7F
1507543596.06,19604,12.19,73120.3,2.59,1.29,1.37,0,*76
1507543597.33,19605,12.19,73120.8,2.59,1.29,1.37,0,*77
1507543598.59,19606,12.19,73120.5,2.59,1.29,1.29,0,*7B
1507543599.85,19607,12.19,73120.8,2.59,1.37,1.37,0,*7A
1507543601.08,19608,12.19,73118.5,2.59,1.37,1.41,0,*74
1507543602.34,19609,12.19,73116.0,2.59,1.29,1.29,0,*74
1507543603.6,19610,12.19,73118.5,2.59,1.29,1.37,0,*73
1507543604.77,19611,12.19,73122.3,2.61,1.41,1.41,0,*76
1507543606.03,19612,12.19,73124.5,2.59,1.29,1.29,0,*7E
1507543607.23,19613,12.19,73124.5,2.61,1.33,1.41,0,*71
1507543608.44,19614,12.19,73126.5,2.61,1.33,1.41,0,*76
1507543609.67,19615,12.19,73124.8,2.61,1.29,1.33,0,*79
1507543610.93,19616,12.19,73124.8,2.59,1.25,1.17,0,*7B
1507543612.16,19617,12.19,73130.0,2.61,1.09,1.09,0,*70
1507543613.39,19618,12.19,73130.8,2.61,1.17,1.17,0,*7F
1507543614.57,19619,12.19,73128.0,2.61,1.05,1.05,0,*7E
1507543615.83,19620,12.19,73126.8,2.59,1.13,1.13,0,*7F
1507543617.06,19621,12.19,73126.8,2.61,1.21,1.21,0,*75
1507543618.3,19622,12.19,73124.8,2.61,1.21,1.21,0,*76
1507543619.5,19623,12.19,73122.5,2.59,1.01,1.05,0,*78
1507543620.73,19624,12.19,73124.3,2.59,1.01,1.13,0,*78
1507543621.94,19625,12.19,73122.3,2.59,1.05,1.05,0,*7A
1507543623.17,19626,12.19,73118.3,2.61,1.17,1.17,0,*72
1507543624.42,19627,12.19,73124.3,2.59,1.25,1.25,0,*78
1507543625.68,19628,12.19,73126.5,2.59,1.25,1.29,0,*7B
1507543626.93,19629,12.19,73128.3,2.59,1.25,1.37,0,*75
1507543628.16,19630,12.19,73124.8,2.61,1.33,1.43,0,*72
1507543629.39,19631,12.19,73126.8,2.59,1.37,1.41,0,*7E
1507543630.59,19632,12.19,73128.8,2.61,1.33,1.41,0,*72
1507543631.85,19633,12.19,73126.8,2.59,1.25,1.25,0,*7D
1507543633.05,19634,12.19,73124.5,2.61,1.29,1.41,0,*7F
1507543634.28,19635,12.19,73124.0,2.61,1.21,1.29,0,*78
1507543635.53,19636,12.19,73130.3,2.59,1.25,1.25,0,*78
1507543636.77,19637,12.19,73126.0,2.61,1.33,1.33,0,*72
1507543638.01,19638,12.19,73130.0,2.63,1.43,1.43,0,*7F
1507543639.25,19639,12.19,73128.0,2.63,1.51,1.43,0,*7D
1507543640.48,19640,12.19,73130.0,2.65,1.47,1.47,0,*76
1507543641.7,19641,12.19,73124.8,2.65,1.47,1.55,0,*74
1507543642.9,19642,12.19,73126.5,2.65,1.41,1.43,0,*76
1507543644.12,19643,12.19,73126.0,2.65,1.43,1.43,0,*75
1507543645.34,19644,12.19,73124.5,2.65,1.43,1.47,0,*76
1507543646.56,19645,12.19,73120.0,2.65,1.43,1.47,0,*77
1507543647.79,19646,12.19,73126.0,2.65,1.43,1.55,0,*77
1507543649.01,19647,12.19,73122.0,2.65,1.47,1.47,0,*71
1507543650.23,19648,12.19,73124.5,2.65,1.43,1.47,0,*7A
1507543651.46,19649,12.19,73124.5,2.67,1.41,1.51,0,*7C
1507543652.7,19650,12.19,73124.5,2.67,1.47,1.47,0,*75
1507543653.93,19651,12.19,73124.5,2.67,1.41,1.47,0,*72
1507543655.18,19652,12.19,73124.3,2.67,1.37,1.47,0,*70
1507543656.41,19653,12.19,73122.3,2.67,1.37,1.41,0,*77
1507543657.64,19654,12.19,73120.8,2.67,1.37,1.41,0,*70
1507543658.87,19655,12.19,73120.3,2.67,1.29,1.41,0,*7E
1507543660.13,19656,12.19,73120.8,2.67,1.37,1.37,0,*73
1507543661.33,19657,12.19,73116.5,2.69,1.41,1.41,0,*7C
1507543662.53,19658,12.19,73122.3,2.69,1.41,1.41,0,*73
1507543663.73,19659,12.19,73122.0,2.69,1.41,1.41,0,*72
1507543664.95,19660,12.19,73122.0,2.69,1.47,1.41,0,*7E
1507543666.15,19661,12.19,73116.8,2.69,1.41,1.41,0,*79
1507543667.38,19662,12.19,73120.0,2.69,1.41,1.47,0,*7C
1507543668.61,19663,12.19,73122.0,2.69,1.37,1.41,0,*7A
1507543669.87,19664,12.19,73122.3,2.69,1.17,1.17,0,*7C
1507543671.13,19665,12.19,73122.3,2.69,1.29,1.25,0,*71
1507543672.39,19666,12.19,73124.5,2.67,1.29,1.25,0,*7C
1507543673.65,19667,12.19,73120.3,2.69,1.25,1.25,0,*7F
1507543674.91,19668,12.19,73124.3,2.69,1.25,1.25,0,*70
1507543676.16,19669,12.19,73122.0,2.69,1.25,1.25,0,*71
1507543677.42,19670,12.13,73118.0,2.69,1.25,1.25,0,*79
1507543678.68,19671,12.19,73120.0,2.69,1.25,1.25,0,*78
1507543679.93,19672,12.19,73124.8,2.69,1.25,1.29,0,*77
1507543681.17,19673,12.13,73120.5,2.71,1.29,1.33,0,*78
1507543682.43,19674,12.19,73124.3,2.69,1.25,1.37,0,*7E
1507543683.7,19675,12.19,73128.3,2.69,1.29,1.37,0,*73
1507543684.91,19676,12.19,73126.8,2.71,1.33,1.41,0,*73
1507543686.11,19677,12.19,73122.5,2.71,1.33,1.41,0,*72
1507543687.32,19678,12.19,73126.5,2.71,1.33,1.41,0,*7D
1507543688.49,19679,12.19,73122.8,2.71,1.41,1.41,0,*79
1507543689.69,19680,12.19,73122.8,2.71,1.41,1.51,0,*7E
1507543690.92,19681,12.13,73120.8,2.71,1.43,1.51,0,*7D
1507543692.15,19682,12.19,73118.3,2.71,1.63,1.55,0,*78
1507543693.4,19683,12.19,73120.0,2.73,1.51,1.55,0,*7A
1507543694.63,19684,12.13,73120.3,2.71,1.43,1.55,0,*7C
1507543695.89,19685,12.19,73126.8,2.73,1.51,1.55,0,*7C
1507543697.14,19686,12.19,73126.3,2.73,1.51,1.55,0,*7F
1507543698.39,19687,12.19,73128.0,2.73,1.43,1.43,0,*7A
1507543699.65,19688,12.19,73126.5,2.73,1.51,1.55,0,*71
1507543700.91,19689,12.19,73126.5,2.73,1.51,1.51,0,*74
1507543702.16,19690,12.19,73128.0,2.73,1.51,1.51,0,*7C
1507543703.4,19691,12.19,73130.0,2.75,1.55,1.55,0,*7B
1507543704.62,19692,12.19,73126.0,2.79,1.51,1.59,0,*7C
1507543705.86,19693,12.19,73126.0,2.75,1.55,1.55,0,*79
1507543707.08,19694,12.13,73122.8,2.79,1.51,1.59,0,*7A
1507543708.31,19695,12.19,73124.5,2.79,1.51,1.59,0,*7B
1507543709.54,19696,12.19,73126.3,2.79,1.51,1.51,0,*70
1507543710.76,19697,12.19,73122.0,2.79,1.51,1.59,0,*79
1507543711.99,19698,12.19,73124.3,2.79,1.51,1.59,0,*76
1507543713.21,19699,12.19,73126.3,2.79,1.51,1.59,0,*77
1507543714.44,19700,12.19,73126.8,2.79,1.51,1.51,0,*7E
1507543715.66,19701,12.13,73122.8,2.79,1.59,1.59,0,*7F
1507543716.89,19702,12.19,73126.3,2.79,1.59,1.59,0,*7C
1507543718.11,19703,12.19,73128.3,2.79,1.59,1.59,0,*7D
1507543719.34,19704,12.13,73124.0,2.83,1.55,1.63,0,*7A
1507543720.59,19705,12.13,73124.5,2.81,1.51,1.59,0,*74
1507543721.84,19706,12.13,73126.0,2.81,1.59,1.59,0,*7F
1507543723.08,19707,12.19,73124.8,2.83,1.55,1.63,0,*79
1507543724.31,19708,12.13,73126.0,2.83,1.55,1.63,0,*76
1507543725.54,19709,12.19,73128.3,2.83,1.55,1.55,0,*72
1507543726.79,19710,12.19,73124.5,2.81,1.51,1.59,0,*70
1507543728.02,19711,12.19,73122.0,2.83,1.55,1.63,0,*7E
1507543729.26,19712,12.13,73116.5,2.83,1.55,1.63,0,*7D
1507543730.48,19713,12.13,73118.0,2.83,1.51,1.55,0,*7D
1507543731.71,19714,12.19,73118.5,2.83,1.51,1.55,0,*7A
1507543732.93,19715,12.19,73116.8,2.83,1.43,1.63,0,*7D
1507543734.17,19716,12.13,73116.5,2.83,1.55,1.55,0,*7C
1507543735.42,19717,12.19,73116.8,2.85,1.51,1.55,0,*7F
1507543736.65,19718,12.13,73110.8,2.87,1.55,1.59,0,*7A
1507543737.9,19719,12.13,73112.5,2.85,1.51,1.51,0,*75
1507543739.15,19720,12.13,73116.0,2.85,1.43,1.43,0,*7F
1507543740.38,19721,12.19,73120.8,2.87,1.55,1.67,0,*7D